Regional Weather Roundup
Issued by NWS

Home | Current Version | Previous Version | Graphics & Text | Print | Product List | Glossary On
Versions: 1 2 3 4 5 6 7 8 9 10 11 12 13 14 15 16 17 18 19 20 21 22 23 24 25 26 27 28 29 30 31 32 33 34 35 36 37 38 39 40 41 42 43 44 45 46 47 48 49 50
000
ASUS43 KMPX 240401
RWRMN
WEATHER ROUNDUP FOR MINNESOTA
NATIONAL WEATHER SERVICE TWIN CITIES/CHANHASSEN MN
1100 PM CDT TUE AUG 23 2016


NOTE: "FAIR" INDICATES FEW OR NO CLOUDS BELOW 12,000 FEET WITH NO
SIGNIFICANT WEATHER AND/OR OBSTRUCTIONS TO VISIBILITY. N/A MEANS
CURRENT SKY AND/OR WEATHER CONDITIONS ARE NOT AVAILABLE.

MNZ060>063-068>070-240500-
   Twin Cities Metro

CITY           SKY/WX    TMP DP  RH WIND       PRES   REMARKS
TWIN CITIES    TSTM      68  65  90 S8        29.86R FOG
ST PAUL        TSTM      68  66  93 S6        29.87R FOG
CRYSTAL        HVY RAIN  68  65  90 SE14      29.84S FOG
BLAINE         RAIN      70  70 100 S13       29.86S
LAKEVILLE      CLOUDY    66  66 100 E5        29.84F
EDEN PRAIRIE   HVY RAIN  69  65  86 CALM      29.86R FOG
LAKEVILLE      CLOUDY    66  66 100 E5        29.84F
SOUTH ST PAUL  CLOUDY    68  67  96 SE3       29.86S
LAKE ELMO      LGT RAIN  68  68 100 S8        29.87R
$$
MNZ001>005-007-008-013>017-022>024-027-028-240500-
   Northwest Minnesota

CITY           SKY/WX    TMP DP  RH WIND       PRES   REMARKS
BEMIDJI        PTCLDY    71  68  90 S5        29.80S
HALLOCK        CLOUDY    73  70  88 W9        29.72R
ROSEAU         LGT RAIN  77  70  78 SW10      29.71R
WARROAD        CLOUDY    77  70  78 SW14G23   29.70R
THIEF RVR FALL LGT RAIN  74  67  78 SW9       29.77R
CROOKSTON      CLOUDY    73  68  83 W7        29.77R
FOSSTON        CLEAR     68  63  83 S8        29.79S
DETROIT LAKES  CLOUDY    72  64  78 S9        29.82R
MOORHEAD       CLOUDY    72  66  83 SW3       29.79R
PARK RAPIDS    PTCLDY    72  68  87 S8        29.83R
MAHNOMEN       FAIR      69  64  84 S9        29.78S
$$
MNZ006-009>011-018-025>026-240500-
   North Central Minnesota

CITY           SKY/WX    TMP DP  RH WIND       PRES   REMARKS
BAUDETTE       CLEAR     75  67  76 S13       29.72F
FLAG ISLAND    CLOUDY    75  68  78 S5        29.66R
INTL FALLS     CLEAR     74  68  81 VRB6      29.77R
WASKISH        CLEAR     73  70  88 S6        29.76S
BIG FORK       CLEAR     72  68  88 S6        29.81S
LONGVILLE      CLOUDY    72  66  83 S8        29.82S
GRAND RAPIDS   CLOUDY    72  66  81 S10       29.85S
ORR            PTCLDY    72  64  78 S7        29.79F
COOK           CLOUDY    73  66  78 S8G16     29.83F
WALKER         CLOUDY    72  68  89 SW3       29.82R
$$
MNZ012-019>021-037-240500-
   Northeast Minnesota

CITY           SKY/WX    TMP DP  RH WIND       PRES   REMARKS
DULUTH         CLOUDY    72  65  78 S12       29.88F
ELY            CLOUDY    72  64  78 S7        29.86S
HIBBING        CLOUDY    71  65  81 S7        29.84F
EVELETH        CLOUDY    73  66  79 S8        29.87S
DULUTH HARBOR  CLOUDY    73  68  83 SW3       29.86S
TWO HARBORS    CLOUDY    73  66  78 S3        29.86S
SILVER BAY     PTCLDY    72  66  83 CALM      29.86F
GRAND MARAIS     N/A     72  66  81 VRB6      29.87S
G MARAIS ARPRT CLOUDY    66  61  82 S8        29.93S
$$
MNZ029>031-032-039>041-046>048-054>057-064-240500-
   West Central Minnesota

CITY           SKY/WX    TMP DP  RH WIND       PRES   REMARKS
FERGUS FALLS   CLEAR     70  68  94 S6        29.82R
WHEATON        PTCLDY    70  68  94 S6        29.80S
MORRIS         PTCLDY    66  66 100 SE5       29.80S
ALEXANDRIA     CLOUDY    69  66  90 S5        29.84S
ELBOW LAKE     FAIR      65  64  95 SE8       29.82R
WADENA         PTCLDY    68  66  94 S3        29.82S
GLENWOOD       PTCLDY    66  64  94 S5        29.84S
APPLETON       MOCLDY    68  64  88 SE7       29.80S
BENSON         CLOUDY    70  63  78 S9        29.82R
ORTONVILLE     MOCLDY    68  64  88 CALM      29.80R
MADISON        PTCLDY    68  66  94 S7        29.81R
WILLMAR        CLOUDY    68  64  88 SE7       29.85S
$$
MNZ033>034-036-042>043-049>051-058-059-240500-
   Central Minnesota

CITY           SKY/WX    TMP DP  RH WIND       PRES   REMARKS
ST CLOUD       CLOUDY    69  66  90 S13       29.84R
SAUK CENTRE    MOCLDY    68  66  94 SE6       29.83S
PAYNESVILLE    CLOUDY    68  68  99 S6        29.84S
AITKIN         CLOUDY    72  63  73 S6        29.83F
PINE RIVER     PTCLDY    72  66  83 S6        29.86S
BRAINERD       PTCLDY    69  64  84 SE6       29.83F
STAPLES        CLOUDY    70  64  83 SE3       29.82S
LONG PRAIRIE   FAIR      64  64 100 SE3       29.84R
LITTLE FALLS   PTCLDY    68  61  77 SE7       29.84R
LITCHFIELD     DRIZZLE   68  66  94 SE3       29.86S
BUFFALO        CLOUDY    67  64  87 SW5       29.86F
MAPLE LAKE     CLOUDY    68  65  90 S5        29.86F
HUTCHINSON     DRIZZLE   67  66  99 SE6       29.85F
$$
MNZ037-044-045-052-053-240500-
   East Central Minnesota

CITY           SKY/WX    TMP DP  RH WIND       PRES   REMARKS
PRINCETON      CLOUDY    73  66  78 SE12      29.85S
MORA           CLOUDY    70  63  78 S9        29.87S
CAMBRIDGE      CLOUDY    73  63  68 S8        29.84F
RUSH CITY      CLOUDY    70  64  79 S6        29.86F
MOOSE LAKE     CLOUDY    68  63  83 CALM      29.85S
HINCKLEY       FAIR      70  64  83 S5        29.87R
CLOQUET        CLOUDY    70  63  78 SE5       29.88S
MCGREGOR       CLOUDY    68  63  83 SE6       29.86S
$$
MNZ071>073-080-081-089-090-097-098-240500-
   Southwest Minnesota

CITY           SKY/WX    TMP DP  RH WIND       PRES   REMARKS
MONTEVIDEO     CLOUDY    66  66 100 S5        29.84R
GRANITE FALLS  CLOUDY    68  67  96 SE5       29.83S
CANBY          CLOUDY    68  66  93 E5        29.83R
MARSHALL       CLOUDY    67  66  97 SE6       29.83R
REDWOOD FALLS  CLOUDY    67  65  93 S9        29.83R
OLIVIA         CLOUDY    68  64  88 SE6       29.83R
PIPESTONE      CLOUDY    72  70  94 S10       29.84R
WINDOM         CLOUDY    70  66  88 S6        29.84R
WORTHINGTON    CLOUDY    73  71  93 S12       29.83F
JACKSON        CLOUDY    70  66  88 S9        29.84S
TRACY          CLOUDY    66  66 100 CALM      29.84R
$$
MNZ065>067-074>077-082>085-091>093-240500-
   South Central Minnesota

CITY           SKY/WX    TMP DP  RH WIND       PRES   REMARKS
MANKATO        CLOUDY    66  63  88 SE14G23   29.84R
NEW ULM          N/A     66  66 100 SE6       29.83F
ST JAMES       CLOUDY    63  61  94 CALM      29.85S
FAIRMONT         N/A    N/A N/A N/A MISG        N/A
GLENCOE        DRIZZLE   67  68 100 SE8       29.84F
FARIBAULT      CLOUDY    64  64 100 SE21      29.81F
OWATONNA       CLOUDY    66  63  88 SE14G21   29.84F
WASECA         CLOUDY    64  61  88 SE14G23   29.85F
ALBERT LEA     CLOUDY    64  64 100 SE10G16   29.88F
$$
MNZ078>079-086>088-094>096-240500-
   Southeast Minnesota

CITY           SKY/WX    TMP DP  RH WIND       PRES   REMARKS
ROCHESTER      TSTM      67  66  97 SE13G18   29.92F
RED WING       MOCLDY    70  66  88 SE9       29.85F
STANTON        CLOUDY    68  64  88 S16G23    29.81F
DODGE CENTER   LGT RAIN  64  64 100 SE14      29.88F
WINONA         TSTM      70  68  94 SE9       29.93F
AUSTIN         TSTM      64  63  94 E17G23    29.89S
PRESTON        TSTM      64  63  94 NE7       29.93F
$$
ABBREVIATIONS USED IN REMARKS
   TC - TEMPERATURES IN CELSIUS
  WCI - WIND CHILL INDEX
   HX - HEAT INDEX
  VSB - VISIBILITY
$$



USA.gov is the U.S. government's official web portal to all federal, state and local government web resources and services.